This is the latest recevied weather packets stored in our database for station/object SV9TNF-55. If no packets are shown the sender has not sent any weather packets the latest 10 day(s).
| Time | Temp. | Humidity | Pressure | Rain* | Wind** | Luminosity | Snow |
|---|---|---|---|---|---|---|---|
| 1787824483 | 25.56° C | 49% | 1014.5 hPa | 0 mm | 2.24 m/s, 315° | - | - |
| 1787823883 | 25.56° C | 49% | 1014.9 hPa | 0 mm | 2.68 m/s, 315° | - | - |
| 1787823282 | 25.56° C | 48% | 1014.8 hPa | 0 mm | 2.68 m/s, 315° | - | - |
| 1787822683 | 25.56° C | 46% | 1014.5 hPa | 0 mm | 1.79 m/s, 337° | - | - |
| 1787822081 | 25.56° C | 45% | 1014.4 hPa | 0 mm | 1.34 m/s, 315° | - | - |
| 1787821482 | 25° C | 47% | 1014.5 hPa | 0 mm | 1.79 m/s, 315° | - | - |
| 1787820882 | 25° C | 49% | 1014.4 hPa | 0 mm | 1.79 m/s, 337° | - | - |
| 1787820281 | 25° C | 50% | 1014 hPa | 0 mm | 1.34 m/s, 315° | - | - |
| 1787819681 | 24.44° C | 50% | 1014.3 hPa | 0 mm | 1.79 m/s, 315° | - | - |
| 1787819081 | 25° C | 51% | 1013.9 hPa | 0 mm | 1.34 m/s, 315° | - | - |
| 1787818481 | 24.44° C | 52% | 1014.1 hPa | 0 mm | 2.24 m/s, 315° | - | - |
| 1787817881 | 23.89° C | 54% | 1014.1 hPa | 0 mm | 1.79 m/s, 315° | - | - |
| 1787817282 | 23.89° C | 52% | 1013.9 hPa | 0 mm | 2.68 m/s, 315° | - | - |
| 1787816681 | 23.89° C | 53% | 1013.6 hPa | 0 mm | 0.89 m/s, 360° | - | - |
| 1787816081 | 23.89° C | 53% | 1013.4 hPa | 0 mm | 1.79 m/s, 315° | - | - |
| 1787815481 | 23.33° C | 54% | 1013.3 hPa | 0 mm | 2.68 m/s, 292° | - | - |
| 1787814882 | 23.89° C | 53% | 1013.1 hPa | 0 mm | 4.02 m/s, 292° | - | - |
| 1787814280 | 23.33° C | 53% | 1012.9 hPa | 0 mm | 4.47 m/s, 315° | - | - |
| 1787813680 | 23.33° C | 53% | 1013.1 hPa | 0 mm | 3.13 m/s, 292° | - | - |
| 1787813080 | 23.33° C | 53% | 1012.9 hPa | 0 mm | 4.02 m/s, 292° | - | - |
| 1787812480 | 23.33° C | 53% | 1012.8 hPa | 0 mm | 4.02 m/s, 270° | - | - |
| 1787811880 | 22.78° C | 56% | 1012.8 hPa | 0 mm | 4.02 m/s, 292° | - | - |
| 1787811280 | 22.78° C | 56% | 1012.7 hPa | 0 mm | 4.47 m/s, 292° | - | - |
| 1787810679 | 22.22° C | 61% | 1012.5 hPa | 0 mm | 4.02 m/s, 292° | - | - |
| 1787810080 | 21.67° C | 62% | 1012.5 hPa | 0 mm | 2.68 m/s, 315° | - | - |
* Rain latest hour (hover to see other rain measurements)
** Current wind speed in m/s (hover to see current wind gust speed)